Location: Boulin
(43.2500°N, 0.1333°E)
Time: 10:42:37
(UTC+00:00)

COSMOS 2455 - Pass Details

Date: 11 December 2025
Orbit: 898 x 910 km, 67.1° (Epoch: 21 January)

Event Time Altitude Azimuth Distance (km) Brightness Sun altitude
Rises 19:05:29 0° 204° (SSW) 3,514 6.3 -28.5°
Reaches altitude 10° 19:07:58 10° 203° (SSW) 2,578 5.5 -28.9°
Enters shadow 19:12:46 59° 187° (S) 1,045 3.1 -29.8°
